Weather History for Prague, Czech Republic

Change the Weather History Date:

Thursday, October 3, 2013

  Actual Average Record
Temperature  
Mean Temperature 39 °F -  
Max Temperature 51 °F 55 °F 77 °F (2001)
Min Temperature 27 °F 38 °F 27 °F (2013)
Degree Days  
Heating Degree Days 26    
Moisture  
Dew Point 29 °F    
Average Humidity 67    
Maximum Humidity 93    
Minimum Humidity 31    
Precipitation  
Precipitation 0.00 in 0.04 in - ()
Sea Level Pressure  
Sea Level Pressure 30.35 in    
Wind  
Wind Speed 8 mph ()    
Max Wind Speed 18 mph    
Max Gust Speed -    
Visibility 9.0 miles    
Events      
Averages and records for this station are not official NWS values.
T = Trace of Precipitation, MM = Missing Value Source: Averaged Metar Reports

Daily Weather History Graph

Daily Weather History Graph

Search for Another Location

Airport:

Trip Planner

Search our weather history database for the weather conditions in past years. The results will help you decide how hot, cold, wet, or windy it might be!

Date:

Astronomy

Oct. 03, 2013 Rise Set
Actual Time 7:06 AM CEST 6:36 PM CEST
Civil Twilight 6:33 AM CEST 7:09 PM CEST
Nautical Twilight 5:56 AM CEST 7:46 PM CEST
Astronomical Twilight 5:17 AM CEST 8:24 PM CEST
Moon 5:14 AM CEST (10/3) 5:39 PM CEST (10/3)
Length of Visible Light 12h 35m
Length of Day
11h 30m
Waning Crescent, 3% of the Moon is Illuminated
Oct 3
Waning Crescent
Oct 5
New
Oct 12
First Quarter
Oct 19
Full
Oct 27
Last Quarter

Hourly Weather History & Observations

Time (CEST) Temp. Windchill Dew Point Humidity Pressure Visibility Wind Dir Wind Speed Gust Speed Precip Events Conditions
12:00 AM 35.6 °F 29.9 °F 28.4 °F 75% 30.33 in - ESE 6.9 mph - N/A   Clear
12:30 AM 33.8 °F 27.7 °F 28.4 °F 81% 30.33 in - ESE 6.9 mph - N/A   Clear
1:00 AM 35.6 °F 31.7 °F 28.4 °F 75% 30.33 in - SE 4.6 mph - N/A   Clear
1:30 AM 33.8 °F 30.8 °F 28.4 °F 81% 30.33 in - SE 3.5 mph - N/A   Clear
2:00 AM 34 °F - 28 °F 72% 30.42 in 22 mi ESE 6.7 mph - -   Clear
2:00 AM 33.8 °F 29.6 °F 28.4 °F 81% 30.33 in - ESE 4.6 mph - N/A   Clear
2:30 AM 33.8 °F 29.6 °F 28.4 °F 81% 30.33 in - East 4.6 mph - N/A   Clear
3:00 AM 33.8 °F 30.8 °F 30.2 °F 87% 30.33 in - SE 3.5 mph - N/A   Clear
3:30 AM 32.0 °F 28.7 °F 28.4 °F 87% 30.33 in - East 3.5 mph - N/A   Clear
4:00 AM 32.0 °F 27.5 °F 28.4 °F 87% 30.33 in - East 4.6 mph - N/A   Clear
4:30 AM 32.0 °F 27.5 °F 28.4 °F 87% 30.33 in - SE 4.6 mph - N/A   Clear
5:00 AM 32.0 °F - 28.4 °F 87% 30.33 in - ESE 2.3 mph - N/A   Clear
5:30 AM 32.0 °F 28.7 °F 28.4 °F 87% 30.36 in - ESE 3.5 mph - N/A   Clear
6:00 AM 30.2 °F 25.4 °F 28.4 °F 93% 30.36 in - ESE 4.6 mph - N/A   Clear
6:30 AM 30.2 °F 25.4 °F 28.4 °F 93% 30.36 in - ESE 4.6 mph - N/A   Clear
7:00 AM 30.2 °F 26.7 °F 28.4 °F 93% 30.36 in 5.0 mi ESE 3.5 mph - N/A   Unknown
7:30 AM 30.2 °F 24.3 °F 28.4 °F 93% 30.36 in 5.0 mi East 5.8 mph - N/A   Unknown
8:00 AM 32 °F - 29 °F 84% 30.45 in 5 mi East 4.5 mph - -   Mist
8:00 AM 32.0 °F 28.7 °F 30.2 °F 93% 30.36 in 5.0 mi ESE 3.5 mph - N/A   Unknown
8:30 AM 33.8 °F 28.6 °F 30.2 °F 87% 30.39 in 5.0 mi East 5.8 mph - N/A   Unknown
9:00 AM 37.4 °F 31.4 °F 32.0 °F 81% 30.39 in - ESE 8.1 mph - N/A   Clear
9:30 AM 39.2 °F 33.0 °F 32.0 °F 75% 30.39 in - ESE 9.2 mph - N/A   Clear
10:00 AM 41.0 °F 34.7 °F 32.0 °F 70% 30.39 in - ESE 10.4 mph - N/A   Clear
10:30 AM 44.6 °F 38.4 °F 32.0 °F 61% 30.39 in - ESE 12.7 mph - N/A   Clear
11:00 AM 44.6 °F 38.1 °F 26.6 °F 49% 30.36 in - ESE 13.8 mph - N/A   Clear
11:30 AM 46.4 °F 39.2 °F 28.4 °F 50% 30.36 in - ESE 18.4 mph - N/A   Clear
12:00 PM 46.4 °F 39.2 °F 28.4 °F 50% 30.36 in - ESE 18.4 mph - N/A   Clear
12:30 PM 48.2 °F - 28.4 °F 46% 30.36 in - ESE 16.1 mph - N/A   Clear
1:00 PM 48.2 °F - 28.4 °F 46% 30.36 in - ESE 17.3 mph - N/A   Clear
1:30 PM 50.0 °F - 28.4 °F 43% 30.36 in - ESE 16.1 mph - N/A   Clear
2:00 PM 49 °F - 28 °F 31% 30.38 in 19 mi ESE 15.7 mph - -  
2:00 PM 50.0 °F - 28.4 °F 43% 30.33 in - ESE 16.1 mph - N/A   Clear
2:30 PM 50.0 °F - 30.2 °F 47% 30.33 in - ESE 15.0 mph - N/A   Clear
3:00 PM 50.0 °F - 30.2 °F 47% 30.33 in - ESE 15.0 mph - N/A   Clear
3:30 PM 51.8 °F - 28.4 °F 41% 30.33 in - ESE 13.8 mph - N/A   Clear
4:00 PM 51.8 °F - 30.2 °F 44% 30.33 in - ESE 15.0 mph - N/A   Clear
4:30 PM 50.0 °F - 30.2 °F 47% 30.30 in - ESE 12.7 mph - N/A   Clear
5:00 PM 50.0 °F - 30.2 °F 47% 30.30 in - ESE 12.7 mph - N/A   Clear
5:30 PM 50.0 °F - 30.2 °F 47% 30.33 in - SE 13.8 mph - N/A   Clear
6:00 PM 48.2 °F - 30.2 °F 50% 30.33 in - ESE 13.8 mph - N/A   Clear
6:30 PM 46.4 °F 41.1 °F 30.2 °F 53% 30.33 in - ESE 11.5 mph - N/A   Clear
7:00 PM 42.8 °F 36.6 °F 30.2 °F 61% 30.33 in - ESE 11.5 mph - N/A   Clear
7:39 PM 42.8 °F 37.0 °F 30.2 °F 61% 30.33 in - ESE 10.4 mph - N/A   Clear
8:00 PM 42 °F - 30 °F 52% 30.38 in 19 mi ESE 11.2 mph - -   Clear
8:00 PM 42.8 °F 37.0 °F 30.2 °F 61% 30.33 in - ESE 10.4 mph - N/A   Clear
8:30 PM 41.0 °F 34.3 °F 30.2 °F 65% 30.33 in - ESE 11.5 mph - N/A   Clear
9:00 PM 37.4 °F 30.3 °F 28.4 °F 70% 30.33 in - SE 10.4 mph - N/A   Clear
9:30 PM 39.2 °F 33.0 °F 30.2 °F 70% 30.36 in - SE 9.2 mph - N/A   Clear
10:00 PM 37.4 °F 32.1 °F 28.4 °F 70% 30.36 in - ESE 6.9 mph - N/A   Clear
10:30 PM 37.4 °F 31.4 °F 28.4 °F 70% 30.36 in - ESE 8.1 mph - N/A   Clear
11:00 PM 35.6 °F 29.9 °F 28.4 °F 75% 30.36 in - East 6.9 mph - N/A   Clear
11:30 PM 33.8 °F 27.0 °F 28.4 °F 81% 30.36 in - East 8.1 mph - N/A   Clear